Regional Weather Roundup
Issued by NWS Little Rock, AR

Home | Current Version | Previous Version | Graphics & Text | Print | Product List | Glossary On
Versions: 1 2 3 4 5 6 7 8 9 10 11 12 13 14 15 16 17 18 19 20 21 22 23 24 25 26 27
000
ASUS44 KLZK 201005
RWRLZK

WEATHER ROUNDUP FOR ARKANSAS
NATIONAL WEATHER SERVICE LITTLE ROCK AR
500 AM CDT SUN APR 20 2014

NOTE: "FAIR" INDICATES FEW OR NO CLOUDS BELOW 12,000 FEET WITH NO
SIGNIFICANT WEATHER AND/OR OBSTRUCTIONS TO VISIBILITY.

ARZ001-003-010-029-201100-
NORTHWEST ARKANSAS

CITY           SKY/WX    TMP DP  RH WIND       PRES   REMARKS
FAYETTEVILLE   MOCLDY    49  48  97 CALM      30.18R
FORT SMITH     PTCLDY    57  53  86 NE5       30.14F
HARRISON       MOCLDY    57  47  69 CALM      30.18S
BENTONVILLE    CLOUDY    57  48  72 S5        30.17S
ROGERS         CLOUDY    59  49  69 SE6       30.18R
SILOAM SPGS    MOCLDY    57  45  62 E6        30.17S
HIGHFILL       CLOUDY    56  49  77 CALM      30.16S
$$

ARZ004-005-016-201100-
NORTH CENTRAL ARKANSAS

CITY           SKY/WX    TMP DP  RH WIND       PRES   REMARKS
BATESVILLE     PTCLDY    50  45  81 CALM      30.16F
FLIPPIN        MOCLDY    52  41  66 CALM      30.17F
MTN HOME       MOCLDY    54  43  66 NE3       30.17R
$$

ARZ040-041-201100-
WEST CENTRAL ARKANSAS

CITY           SKY/WX    TMP DP  RH WIND       PRES   REMARKS
MENA           CLEAR     50 N/A N/A CALM      30.16F
MOUNT IDA      CLOUDY    51  50  96 CALM      30.14S
$$

ARZ009-017-025-026-028-201100-
NORTHEAST ARKANSAS

CITY           SKY/WX    TMP DP  RH WIND       PRES   REMARKS
CORNING        FAIR      50  46  87 N3        30.18S
JONESBORO      MOCLDY    50  45  83 CALM      30.17R
NEWPORT        PTCLDY    54  50  86 NW3       30.18S
WALNUT RIDGE   PTCLDY    52  46  82 N3        30.17S
BLYTHEVILLE    CLEAR     54  46  74 E5        30.17F
$$

ARZ022-023-033-042-044-201100-
CENTRAL ARKANSAS

CITY           SKY/WX    TMP DP  RH WIND       PRES   REMARKS
LITTLE ROCK    PTCLDY    54  51  90 CALM      30.16F
N LITTLE ROCK    N/A     59  50  71 CALM      30.16F
JACKSONVILLE   CLEAR     50  47  92 CALM      30.16S
SEARCY         PTCLDY    50  48  92 CALM      30.18S
HOT SPRINGS    PTCLDY    53  51  93 CALM      30.17S
RUSSELLVILLE   PTCLDY    51  49  92 CALM      30.16S
CLINTON        FAIR      48  46  93 CALM      30.19S FOG
$$

ARZ036-201100-
EAST ARKANSAS

CITY           SKY/WX    TMP DP  RH WIND       PRES   REMARKS
WEST MEMPHIS   PTCLDY    52  50  93 CALM      30.15S
$$

ARZ050-053-066-070-073-201100-
SOUTHWEST ARKANSAS

CITY           SKY/WX    TMP DP  RH WIND       PRES   REMARKS
ARKADELPHIA    FAIR      54  54 100 CALM      30.17R
CAMDEN         PTCLDY    50  48  93 MISG      30.16S FOG
TEXARKANA      CLEAR     56  51  84 CALM      30.14F
EL DORADO      CLEAR     51  50  96 CALM      30.16R
DE QUEEN       PTCLDY    50  50 100 CALM      30.13F FOG
$$

ARZ056-057-069-201100-
SOUTHEAST ARKANSAS

CITY           SKY/WX    TMP DP  RH WIND       PRES   REMARKS
PINE BLUFF     CLEAR     54  51  90 CALM      30.16S
STUTTGART      CLEAR     55  52  88 NE5       30.16F
MONTICELLO     CLEAR     51  49  92 CALM      30.16S

$$





USA.gov is the U.S. government's official web portal to all federal, state and local government web resources and services.